This is the latest recevied weather packets stored in our database for station/object KD8ZLZ-13. If no packets are shown the sender has not sent any weather packets the latest 10 day(s).
| Time | Temp. | Humidity | Pressure | Rain* | Wind** | Luminosity | Snow |
|---|---|---|---|---|---|---|---|
| 1778210444 | 10° C | 63% | 1013.2 hPa | 0 mm | - | 0 W/m² | - |
| 1778209844 | 10° C | 61% | 1013.2 hPa | 0 mm | - | 0 W/m² | - |
| 1778209245 | 10° C | 61% | 1013.2 hPa | 0 mm | - | 0 W/m² | - |
| 1778208644 | 10° C | 60% | 1013.2 hPa | 0 mm | - | 0 W/m² | - |
| 1778208044 | 10.56° C | 59% | 1013.2 hPa | 0 mm | - | 0 W/m² | - |
| 1778207444 | 10.56° C | 57% | 1013.2 hPa | 0 mm | - | 0 W/m² | - |
| 1778206844 | 11.11° C | 52% | 1013.2 hPa | 0 mm | - | 0 W/m² | - |
| 1778206244 | 11.11° C | 51% | 1013.2 hPa | 0 mm | - | 0 W/m² | - |
| 1778205644 | 11.11° C | 50% | 1012.9 hPa | 0 mm | - | 0 W/m² | - |
| 1778205044 | 11.11° C | 51% | 1012.6 hPa | 0 mm | - | 0 W/m² | - |
| 1778204444 | 11.11° C | 51% | 1012.6 hPa | 0 mm | - | 0 W/m² | - |
| 1778203844 | 10.56° C | 53% | 1012.6 hPa | 0 mm | - | 0 W/m² | - |
| 1778203244 | 10.56° C | 56% | 1012.2 hPa | 0 mm | - | 0 W/m² | - |
| 1778202644 | 10.56° C | 51% | 1012.2 hPa | 0 mm | - | 0 W/m² | - |
| 1778202044 | 10.56° C | 46% | 1012.2 hPa | 0 mm | - | 0 W/m² | - |
| 1778201444 | 10.56° C | 50% | 1012.2 hPa | 0 mm | - | 174 W/m² | - |
| 1778200844 | 11.11° C | 47% | 1012.2 hPa | 0 mm | - | 6 W/m² | - |
| 1778200244 | 11.67° C | 44% | 1012.2 hPa | 0 mm | - | 12 W/m² | - |
| 1778199044 | 12.78° C | 39% | 1012.2 hPa | 0 mm | - | 34 W/m² | - |
| 1778198444 | 12.78° C | 40% | 1012.2 hPa | 0 mm | - | 56 W/m² | - |
| 1778197844 | 12.78° C | 38% | 1012.2 hPa | 0 mm | - | 42 W/m² | - |
| 1778197244 | 13.89° C | 37% | 1012.6 hPa | 0 mm | - | 86 W/m² | - |
| 1778196644 | 13.33° C | 38% | 1012.2 hPa | 0 mm | - | 92 W/m² | - |
| 1778196044 | 13.33° C | 38% | 1012.6 hPa | 0 mm | - | 82 W/m² | - |
| 1778195444 | 13.33° C | 38% | 1012.6 hPa | 0 mm | - | 113 W/m² | - |
* Rain latest hour (hover to see other rain measurements)
** Current wind speed in m/s (hover to see current wind gust speed)